Simultaneous Nadir Overpasses (SNOs) Predictions

Prediction of SNOs over PacNW region [( 10.00, 139.50) to ( 22.70, 165.60)] between AQUA and NPP Satellites:

Table of predicted SNOs over PacNW region for the next 30.0 days since TLE Epoch: 9/4/2015
Index Date (AQUA) Time (AQUA) AQUA Lat,Lon Date (NPP) Time (NPP) NPP Lat,Lon Distance(km) Time Diff (sec)
1 09/08/2015 15:09:52 22.63, 159.85 09/08/2015 15:13:21 27.00, 158.24 511.79 209
2 09/11/2015 03:29:28 14.52, 149.39 09/11/2015 03:28:14 14.20, 147.85 169.40 74
3 09/19/2015 02:41:25 19.64, 160.59 09/19/2015 02:38:46 19.36, 159.34 134.86 159
4 09/24/2015 15:09:50 22.64, 159.84 09/24/2015 15:13:19 25.89, 157.99 407.13 209
5 09/27/2015 03:29:40 15.54, 149.16 09/27/2015 03:28:09 15.23, 147.66 165.16 91




NCC Satellite Simultaneous Nadir Overpasses (SNOs) Prediction Service
